{"data":{"norad_id":37258,"epoch":"2026-09-19T17:00:51.070752Z","epoch_age_seconds":86596,"freshness":"FRESH","line1":"1 37258U 10069A   26262.70892443  .00000057  00000+0  00000+0 0  9996","line2":"2 37258   0.0741 353.8970 0005303 170.8050  98.1357  1.00271358 44958","mean_motion":1.00271358,"eccentricity":0.0005303,"inclination_deg":0.0741,"raan_deg":353.897,"arg_perigee_deg":170.805,"mean_anomaly_deg":98.1357,"bstar":0,"rev_number":4495,"period_min":1436.1030195682,"perigee_km":35764.354644378,"apogee_km":35809.074686054,"semimajor_km":42164.851665216,"source":"CELESTRAK","updated_at":"2026-09-20T09:00:35.166848Z"}}